TIME,DELAY(SENSOR),PRES,T(CTD),SAL,OXYGEN,RAWTEMP,T(OPTODE),TCPHASE,FLUOR,BETA(BETA700),BETA(BETA412),BETA(BETA440),CDOM,C(CSC),ED(ED411.90),ED(ED443.80),ED(ED489.40),ED(ED554.70),LU(LU412.20),LU(LU443.80),LU(LU489.40),LU(LU555.00),COMP,TILTX,TILTX(TILTY),CHECK
1370966899,5807,496.3200073242187500,17.0680007934570300,36.3702011108398440,217.5939941406250000,186.1141052246093800,17.0669498443603500,32.0355796813964840,50,102,95,81,67,10052,2146960466,2147513380,2147268160,2147464932,2147079250,2146952091,2147656329,2147132452,257,-1,8,52185
1370967009,5805,484.6700134277344000,17.1704006195068360,36.3907012939453100,219.3954925537109400,182.6622924804687500,17.1710395812988280,31.8921794891357420,51,102,95,81,68,10054,2146958884,2147517851,2147269622,2147459492,2147081069,2146956315,2147655835,2147120009,3371,-1,8,5154
1370967108,5803,474.0000000000000000,17.3339996337890620,36.4205017089843750,220.3094940185547000,177.1560974121093800,17.3371105194091800,31.7689304351806640,51,100,95,79,67,10057,2146954477,2147517293,2147267958,2147459712,2147080219,2146955309,2147654893,2147120786,2378,-1,8,52315
1370967238,5805,461.0799865722656000,17.4587001800537100,36.4458999633789060,222.6309051513672000,173.2807006835937500,17.4540195465087900,31.5947895050048830,50,101,94,81,68,10050,2146955666,2147516141,2147268388,2147455149,2147080676,2146956361,2147653193,2147129307,1697,-1,8,43240
1370967359,5805,450.4299926757812500,17.5529994964599600,36.4623985290527340,223.2599945068359400,170.2362060546875000,17.5458793640136720,31.5207691192626950,51,103,95,80,67,10051,2146958637,2147514523,2147266157,2147453952,2147081197,2146961892,2147655771,2147133056,1104,-1,8,38616
1370967483,5805,439.4500122070312500,17.6420993804931640,36.4799003601074200,224.1383972167968800,167.1800994873047000,17.6380996704101560,31.4342403411865230,51,102,95,80,67,10048,2146956754,2147514989,2147267108,2147455195,2147080292,2146958829,2147651218,2147122761,1168,-1,8,12193
1370967604,5807,428.7600097656250000,17.7635993957519530,36.4995002746582000,227.1015930175781200,163.3161926269531200,17.7547206878662100,31.2316398620605470,51,102,95,82,66,10052,2146956653,2147519332,2147266176,2147452726,2147081051,2146961545,2147653604,2147127744,751,-1,8,59596
1370967736,5806,417.0799865722656000,17.8059997558593750,36.5051002502441400,229.6054992675781200,161.6589965820312500,17.8047504425048830,31.0839500427246100,50,100,96,82,66,10050,2146955638,2147520137,2147268745,2147450898,2147082541,2146955474,2147650185,2147128009,496,-1,8,63847
1370967859,5804,406.1300048828125000,17.8831005096435550,36.5158996582031250,233.3005065917968800,159.3372955322265600,17.8748397827148440,30.8708591461181640,50,101,95,81,66,10054,2146957549,2147516306,2147264886,2147451465,2147083456,2146954166,2147650907,2147126226,89,-1,8,15489
1370967980,5804,395.2600097656250000,17.9556999206542970,36.5295982360839840,235.4951934814453000,156.8542022705078000,17.9498195648193360,30.7314796447753900,51,103,96,80,67,10048,2146957979,2147514432,2147266267,2147452955,2147077385,2146955931,2147648987,2147124589,2400,-1,8,59564
1370968104,5804,384.0700073242187500,18.0074005126953120,36.5382995605468750,231.8684997558593800,155.0941009521484400,18.0029697418212900,30.8839702606201170,50,102,95,81,66,10048,2146955812,2147515830,2147264192,2147449161,2147082715,2146957668,2147645622,2147127670,2874,-1,8,25122
1370968225,5808,373.2699890136719000,18.0412998199462900,36.5391998291015600,234.6161956787109400,153.9987030029297000,18.0360507965087900,30.7357807159423830,51,103,94,79,66,10045,2146955437,2147516644,2147265170,2147449170,2147077421,2146958016,2147648374,2147130349,2719,-1,8,15796
1370968346,5805,362.5199890136719000,18.1093006134033200,36.5485000610351560,235.4741973876953000,151.7662963867187500,18.1034793853759770,30.6645393371582030,51,102,95,82,66,10048,2146957577,2147515428,2147264073,2147448676,2147082706,2146952265,2147649984,2147128978,2556,-2,8,23227
1370968469,5805,351.7600097656250000,18.1422996520996100,36.5509986877441400,236.6576995849609400,150.5646057128906200,18.1397800445556640,30.5919303894042970,51,100,93,82,67,10049,2146957860,2147517952,2147267236,2147450377,2147078729,2146960804,2147649152,2147123410,1966,-1,8,30286
1370968601,5805,340.3900146484375000,18.1849994659423830,36.5530014038085940,237.8162994384765600,149.2648010253906200,18.1790504455566400,30.5192394256591800,50,102,95,80,66,10038,2146956873,2147516233,2147263104,2147449984,2147078427,2146951515,2147647040,2147130697,1482,-1,8,28769
1370968725,5804,329.7600097656250000,18.2108001708984380,36.5555992126464840,238.9790954589843800,148.3146972656250000,18.2077598571777340,30.4518394470214840,50,101,94,81,65,10048,2146958235,2147517549,2147262793,2147450130,2147077686,2146952009,2147652352,2147129234,2098,-1,8,25708
1370968857,5806,318.7699890136719000,18.2530002593994140,36.5577011108398440,240.9145050048828000,146.9739990234375000,18.2482604980468750,30.3430404663085940,50,99,95,81,66,10044,2146956544,2147514477,2147263744,2147452297,2147075785,2146958390,2147655277,2147127734,1694,-1,8,11658
1370968989,5806,307.8299865722656000,18.2672996520996100,36.5569000244140600,244.0908966064453000,146.6287994384765600,18.2586994171142580,30.1914501190185550,50,103,94,81,64,10044,2146957348,2147517156,2147265398,2147447195,2147078793,2146962368,2147652242,2147130230,1415,-1,8,25365
1370969123,5807,296.8999938964844000,18.2728004455566400,36.5519981384277340,247.3892974853515600,146.2942962646484400,18.2688007354736330,30.0367393493652340,50,101,94,80,64,10043,2146958418,2147515611,2147265005,2147448210,2147081024,2146959881,2147645851,2147126363,938,-2,8,22191
1370969266,5806,285.4400024414062500,18.3134994506835940,36.5544013977050800,248.1490936279297000,144.9593963623047000,18.3091392517089840,29.9849205017089840,50,102,94,81,65,10044,2146956809,2147510857,2147264073,2147451986,2147076050,2146960109,2147653942,2147125467,408,-1,8,24681
1370969401,5804,274.7999877929687500,18.3362007141113280,36.5541000366210940,249.9515075683593800,143.9795074462890600,18.3387603759765620,29.8911800384521500,51,100,96,82,63,10041,2146958299,2147516041,2147267894,2147448192,2147081408,2146958445,2147651008,2147127652,2773,-1,8,60711
1370969544,5806,263.6600036621094000,18.3784008026123050,36.5592994689941400,248.5722045898437500,142.7872924804687500,18.3747901916503900,29.9372100830078120,50,101,96,81,65,10038,2146958692,2147512749,2147263232,2147448118,2147072932,2146960777,2147649426,2147125110,2278,-1,8,9672
1370969708,5802,249.4299926757812500,18.4253997802734380,36.5615005493164060,251.7445068359375000,141.2133941650390600,18.4223594665527340,29.7751502990722660,51,102,95,80,63,10039,2146957056,2147514560,2147261714,2147451254,2147077778,2146957741,2147654336,2147125421,1468,-1,8,57360
1370969807,5804,239.1600036621093800,18.4433002471923830,36.5614013671875000,253.6806945800781200,140.6999053955078000,18.4378890991210940,29.6831893920898440,50,102,95,82,64,10040,2146958564,2147516105,2147264274,2147447369,2147077659,2146961590,2147650861,2147130157,1081,-1,8,14057
1370969917,5808,227.8699951171875000,18.4575996398925780,36.5630989074707000,254.5814056396484400,140.1851959228515600,18.4534397125244140,29.6370697021484380,50,101,94,81,63,10044,2146957257,2147516096,2147264740,2147448448,2147082733,2146965330,2147658459,2147128731,683,-1,8,39677
1370970029,5804,216.3600006103515600,18.4925994873046880,36.5674018859863300,252.8520050048828000,139.0485992431640600,18.4878101348876950,29.6980705261230470,50,105,95,81,64,10045,2146957750,2147514075,2147266697,2147448512,2147078189,2146962514,2147656758,2147129206,533,-1,8,65369
1370970139,5807,205.2599945068359400,18.4918003082275400,36.5634002685546900,253.8726959228515600,139.0294036865234400,18.4883899688720700,29.6530208587646500,50,104,96,82,64,10038,2146961837,2147517650,2147261266,2147448054,2147078308,2146971657,2147658496,2147127963,95,-1,8,54709
1370970227,5803,196.5800018310547000,18.4988994598388670,36.5629005432128900,255.4239959716797000,138.8000030517578000,18.4953193664550780,29.5823898315429700,50,104,97,83,64,10039,2146959277,2147516708,2147263451,2147446080,2147075638,2146972653,2147665545,2147125659,3542,-2,8,4553
1370970301,5805,189.6000061035156200,18.5405998229980470,36.5705986022949200,252.4691925048828000,137.5765075683593800,18.5323200225830080,29.6956405639648440,50,104,95,81,64,10041,2146958198,2147515382,2147266660,2147445421,2147076196,2146969398,2147670582,2147129088,87,-2,8,26215
1370970356,5802,184.7500000000000000,18.5333995819091800,36.5652999877929700,253.1573028564453000,137.4376983642578000,18.5365104675292970,29.6636695861816400,52,104,95,81,64,10037,2146957613,2147513188,2147265225,2147446738,2147074962,2146973046,2147667062,2147128502,3091,-1,8,51451
1370970411,5804,179.9299926757812500,18.5559005737304700,36.5654983520507800,253.1793975830078000,136.9149017333984400,18.5523204803466800,29.6558799743652340,52,105,95,81,64,10036,2146957312,2147516406,2147267995,2147446701,2147082944,2146972635,2147669888,2147127268,2585,-1,8,52
1370970466,5802,175.0599975585937500,18.5722007751464840,36.5670013427734400,253.2899932861328000,136.3816986083984400,18.5684509277343750,29.6439399719238280,52,105,97,82,64,10040,2146955675,2147515611,2147265033,2147447945,2147078473,2146971053,2147676160,2147125184,2065,-2,8,58913
1370970521,5807,170.2100067138672000,18.5720996856689450,36.5607986450195300,253.2362976074218800,136.6748962402343800,18.5595798492431640,29.6502609252929700,56,109,95,83,63,10035,2146956461,2147515090,2147263268,2147447899,2147083382,2146981165,2147679286,2147127963,1931,-1,8,13781
1370970576,5802,165.4100036621093800,18.5554008483886720,36.5461997985839840,254.7969055175781200,136.8643035888672000,18.5538501739501950,29.5845108032226560,64,108,98,82,64,10028,2146956946,2147513472,2147266358,2147449801,2147083017,2146986166,2147683830,2147131968,1985,-1,8,48997
1370970654,5805,158.9900054931640600,18.5725002288818360,36.5453987121582000,256.0409851074219000,136.3921966552734400,18.5681304931640620,29.5243206024169920,67,107,96,82,63,10025,2146956754,2147519241,2147264941,2147449316,2147081764,2146985069,2147690221,2147132160,2392,-2,8,46414
1370970709,5804,154.9900054931640600,18.5902996063232420,36.5470008850097660,256.5067138671875000,135.7171936035156200,18.5885391235351560,29.4953804016113280,67,107,97,81,64,10027,2146956973,2147512502,2147267117,2147449462,2147083684,2146984987,2147686308,2147129883,2195,-1,9,10310
1370970764,5803,151.1499938964843800,18.6238994598388670,36.5495986938476560,256.7453918457031000,134.6613006591797000,18.6204795837402340,29.4714794158935550,69,108,95,81,65,10018,2146958436,2147517888,2147266002,2147448128,2147077275,2146980818,2147680365,2147129581,1565,-2,8,47834
1370970830,5807,146.4799957275390600,18.6744995117187500,36.5537986755371100,256.7894897460937500,132.3704986572265600,18.6897602081298830,29.4398002624511720,69,111,96,82,64,10020,2146957723,2147515483,2147265024,2147447899,2147079396,2146987337,2147692836,2147131684,980,-2,8,49355
1370970885,5804,142.6399993896484400,18.7786998748779300,36.5679016113281250,254.2581939697265600,129.4940948486328000,18.7767791748046880,29.5121803283691400,75,110,95,82,66,10022,2146957732,2147512594,2147264685,2147448996,2147079469,2146992256,2147695552,2147133558,811,-1,8,37779
1370970964,5806,137.7700042724609400,18.8603000640869140,36.5728988647460940,251.3592071533203000,127.0533981323242200,18.8506393432617200,29.6077709197998050,80,111,96,83,64,10016,2146956388,2147516736,2147263085,2147448338,2147085723,2146993307,2147693705,2147128356,788,-1,9,8210
1370971030,5805,134.4600067138672000,18.8866996765136720,36.5736999511718750,250.7173004150390600,126.0996017456054700,18.8794994354248050,29.6233997344970700,83,110,97,82,65,10008,2146956699,2147516562,2147265014,2147448795,2147077476,2146998089,2147699858,2147130962,600,-2,8,51769
1370971107,5807,130.7700042724609400,18.9276008605957030,36.5728988647460940,250.7138977050781200,124.7777023315429700,18.9195098876953120,29.6066093444824220,85,110,95,82,64,10016,2146958610,2147515602,2147264000,2147448667,2147083730,2147015277,2147725714,2147131264,3524,-2,8,16921
1370971195,5805,126.6999969482421900,19.0097999572753900,36.5755996704101560,251.3896942138672000,121.9955978393554700,19.0037307739257800,29.5405292510986330,91,110,96,82,64,10009,2146956854,2147516690,2147265883,2147448393,2147092233,2147030976,2147740077,2147137152,2902,-2,8,48247
1370971285,5807,122.6699981689453100,19.0541000366210940,36.5773010253906250,251.9421997070312500,120.5315017700195300,19.0480709075927730,29.4973297119140620,96,112,97,83,65,10006,2146957888,2147518811,2147267428,2147446144,2147090340,2147016685,2147722852,2147132324,901,-1,8,53898
1370971373,5806,118.6999969482421900,19.1229000091552730,36.5780982971191400,252.9568023681640600,118.3491973876953100,19.1141490936279300,29.4245891571044920,103,119,98,82,64,9997,2146956598,2147515062,2147265792,2147450029,2147093321,2147008310,2147711606,2147132891,136,-1,8,37436
1370971461,5808,114.7300033569336000,19.2122001647949220,36.5800018310546900,254.3495941162109400,115.6119995117187500,19.1970596313476560,29.3284893035888670,109,116,99,84,64,9996,2146955702,2147518601,2147262756,2147450742,2147095634,2147028745,2147737645,2147133814,205,-1,8,40097
1370971563,5809,110.6600036621093800,19.2591991424560550,36.5830001831054700,254.8070983886718800,113.8784027099609400,19.2495803833007800,29.2864799499511720,110,114,97,83,65,9989,2146957897,2147516854,2147265664,2147445796,2147107044,2147055414,2147764964,2147136859,2712,-1,8,41126
1370971673,5807,106.8399963378906200,19.3085994720459000,36.5826988220214840,255.7397003173828000,112.1647033691406200,19.3015098571777340,29.2241096496582030,113,115,99,85,64,9978,2146958710,2147520722,2147265499,2147446692,2147104640,2147047926,2147753837,2147137755,2166,-2,8,43242
1370971816,5806,103.2300033569336000,19.3805007934570300,36.5838012695312500,258.9270019531250000,109.7643966674804700,19.3742599487304700,29.0572395324707030,123,120,99,83,65,9972,2146955081,2147517604,2147271689,2147444114,2147116891,2147064630,2147774756,2147139593,1845,-1,8,37753
1370971957,5803,98.7200012207031200,19.4568004608154300,36.5843009948730500,261.0765991210937500,107.0922012329101600,19.4552707672119140,28.9321594238281250,111,119,98,85,66,9969,2146960018,2147516141,2147268141,2147442980,2147116306,2147051821,2147747638,2147134564,1559,-2,8,34599
1370972012,5803,96.5500030517578100,19.5212001800537100,36.5826988220214840,263.7799987792969000,105.2416000366211000,19.5113792419433600,28.7959899902343750,116,123,101,85,65,9968,2146956443,2147519881,2147263789,2147444653,2147122541,2147047789,2147743195,2147134518,1193,-1,8,19264
1370972067,5802,94.2699966430664000,19.5599002838134770,36.5806007385253900,267.4635925292969000,103.8626022338867200,19.5531997680664060,28.6271095275878900,112,121,100,84,65,9952,2146957037,2147519488,2147268059,2147444214,2147148982,2147109778,2147808484,2147143168,1174,-2,9,11570
1370972122,5806,91.9000015258789000,19.6060009002685550,36.5845985412597660,268.3030090332031000,102.1312026977539000,19.6057205200195300,28.5710391998291000,120,124,101,86,64,9954,2146962505,2147527268,2147278006,2147447076,2147247195,2147305883,2148033819,2147160749,1440,-1,8,57465
1370972200,5807,88.0000000000000000,19.6972999572753900,36.5859985351562500,268.6120910644531000,99.2601165771484400,19.6928291320800780,28.5221805572509770,125,125,99,87,65,9937,2146965485,2147539254,2147297389,2147447259,2147491821,2147755922,2148529234,2147207049,1802,-1,9,4395
1370972255,5805,84.6600036621093800,19.8068008422851560,36.5803985595703100,271.0981140136719000,95.9799270629882800,19.7923793792724600,28.3806190490722660,116,126,101,85,62,9928,2146971840,2147555053,2147311808,2147445101,2147693046,2148078921,2148844123,2147240411,1784,-2,9,50051
1370972310,5804,81.6399993896484400,19.9712009429931640,36.5802001953125000,271.9556884765625000,90.7466735839843800,19.9512805938720700,28.2805900573730470,113,130,101,89,64,9904,2146974336,2147558180,2147317092,2147446016,2147792228,2148188836,2148935533,2147253915,1543,-1,8,41314
1370972365,5806,78.8899993896484400,20.0188999176025400,36.5848007202148440,272.4302062988281000,88.6661071777343800,20.0144805908203120,28.2356891632080080,106,133,104,89,63,9919,2146984146,2147581238,2147343424,2147450825,2148176182,2148784512,2149517101,2147316928,1043,-2,8,58610
1370972420,5804,76.3399963378906200,20.1089000701904300,36.5573005676269500,271.8937072753906000,85.9006805419921900,20.0985107421875000,28.2222595214843750,107,141,105,90,63,9900,2146986733,2147586688,2147350052,2147443940,2148322669,2148957202,2149637622,2147330285,564,-1,9,61831
1370972475,5805,74.1699981689453100,20.2040996551513670,36.5555992126464840,271.5278015136719000,82.8224029541015600,20.1920795440673830,28.1983604431152340,110,137,104,89,61,9906,2146998235,2147603785,2147366518,2147443017,2148669961,2149429568,2150059712,2147375012,957,-1,8,36699
1370972532,5804,72.2799987792968800,20.3250999450683600,36.5606002807617200,272.2177124023437500,78.8437500000000000,20.3130607604980470,28.1211490631103500,103,139,106,93,61,9903,2147000292,2147614747,2147378578,2147449828,2148924041,2149750656,2150325376,2147403648,894,-2,8,1209
1370972587,5804,70.8199996948242200,20.5321006774902340,36.5523986816406250,273.0805053710937500,72.5688705444336000,20.5039997100830080,28.0085906982421880,100,136,105,90,62,9908,2147004891,2147617517,2147377920,2147447533,2148990592,2149776054,2150305106,2147399808,570,-1,8,45878
1370972653,5805,69.4499969482421900,20.6089000701904300,36.5545997619628900,273.6354980468750000,69.7555389404296900,20.5896492004394530,27.9518108367919920,99,142,104,87,62,9909,2146995181,2147602249,2147355766,2147444077,2148695606,2149298788,2149816905,2147350098,417,-1,9,28664
1370972763,5806,67.5599975585937500,20.7348003387451170,36.5497016906738300,273.2243957519531000,65.7943878173828100,20.7103004455566400,27.9187698364257800,99,144,107,91,61,9907,2146990016,2147583643,2147333805,2147444406,2148397385,2148819245,2149335771,2147302491,650,-2,8,2543
1370972876,5804,64.8700027465820300,20.9745006561279300,36.5451011657714840,272.8171997070312500,57.9628715515136700,20.9490394592285160,27.8377895355224600,88,139,104,90,62,9889,2146985554,2147573988,2147323364,2147443355,2148212854,2148503387,2149014400,2147269348,287,-1,8,59381
1370972931,5804,62.9099998474121100,21.0956001281738280,36.5456008911132800,270.9258117675781000,53.7073593139648440,21.0788707733154300,27.8595905303955080,86,145,109,95,61,9891,2146982738,2147566912,2147319835,2147440219,2148147081,2148392420,2148888091,2147252406,3444,-1,8,13857
1370972986,5807,61.2900009155273440,21.2336006164550780,36.5439987182617200,269.2416076660156000,49.2979507446289060,21.2134895324707030,27.8719596862792970,87,139,104,90,60,9879,2146992466,2147585737,2147333357,2147443081,2148463460,2148788324,2149214601,2147293787,3546,-1,9,9138
1370973074,5802,59.5299987792968750,21.3969993591308600,36.5533981323242200,268.2655029296875000,44.0716514587402340,21.3731594085693360,27.8462390899658200,83,136,107,89,59,9887,2146998756,2147599817,2147346733,2147443072,2148819044,2149217965,2149559094,2147329673,3143,-1,9,14615
1370973197,5806,56.9900016784668000,21.5167999267578120,36.5424003601074200,267.1626892089844000,39.6718788146972660,21.5076694488525400,27.8360404968261720,78,139,105,88,60,9884,2146982692,2147563748,2147306770,2147438272,2148128640,2148262052,2148708013,2147240100,3095,-2,9,6891
1370973252,5801,55.1500015258789060,21.5401000976562500,36.5386009216308600,267.1712036132812500,38.8879394531250000,21.5316505432128900,27.8258895874023440,77,137,105,90,61,9888,2146982080,2147559433,2147301266,2147438912,2148033526,2148130532,2148586980,2147226971,3521,-2,8,19769
1370973405,5806,51.7400016784668000,21.8773994445800780,36.5204010009765600,265.0878906250000000,28.4547290802001950,21.8510303497314450,27.7809791564941400,76,137,106,90,61,9833,2146988891,2147564992,2147310162,2147439469,2148270912,2148373558,2148769462,2147247579,2787,-1,9,6457
1370973483,5804,49.7200012207031250,22.2703990936279300,36.4888000488281250,261.5826110839844000,15.7002201080322270,22.2422199249267580,27.7661991119384770,73,140,107,90,60,9859,2146990098,2147572800,2147311872,2147434477,2148422418,2148538441,2148882285,2147264192,2316,-1,8,23811
1370973559,5803,47.7599983215332000,22.5802993774414060,36.4785003662109400,259.2441101074219000,5.6671857833862305,22.5505504608154300,27.7386894226074220,75,148,105,89,60,9871,2147006573,2147595849,2147332096,2147436617,2148970486,2149159131,2149368448,2147322349,1412,-2,9,23335
1370973900,5807,45.8400001525878900,22.8791999816894530,36.4598007202148440,256.4814147949219000,-4.5208449363708500,22.8642196655273440,27.7278594970703120,72,132,104,88,60,9866,2146997330,2147581467,2147320292,2147430473,2148722066,2148842121,2149095908,2147290541,1193,-2,9,17678
1370973998,5805,43.8400001525878900,22.9705009460449220,36.4472007751464840,255.4210052490234400,-7.8418488502502440,22.9666004180908200,27.7312908172607420,72,137,104,89,60,9854,2146993618,2147577609,2147314861,2147431744,2148659684,2148763218,2149014592,2147280246,559,-1,8,26651
1370974087,5802,41.7599983215332000,23.1436004638671880,36.4224014282226560,254.0090026855468800,-11.8617095947265620,23.0906105041503900,27.7410793304443360,73,140,104,88,60,9864,2147007113,2147596544,2147334180,2147428653,2149196864,2149338953,2149464667,2147338038,3468,-1,8,38142
1370974152,5803,39.6100006103515600,23.3460006713867200,36.3997993469238300,252.9888000488281200,-19.8238391876220700,23.3365192413330080,27.6860599517822270,74,138,103,90,59,9863,2147019035,2147615643,2147349878,2147431990,2149724452,2149905106,2149895990,2147395510,2235,-2,9,33112
1370974428,5802,37.8600006103515600,23.8400001525878900,36.3529014587402340,249.9579010009765600,-36.0661506652832000,23.8394107818603500,27.6153297424316400,70,131,102,88,60,9881,2147016950,2147616329,2147346797,2147428388,2149747501,2149894418,2149873965,2147403574,1265,-1,9,42223
1370974482,5806,35.5900001525878900,23.9640007019042970,36.3447990417480500,249.5290985107422000,-40.2933311462402340,23.9705696105957030,27.5816898345947270,69,127,104,87,59,9882,2147017042,2147610834,2147344082,2147431606,2149653120,2149757668,2149753179,2147399433,2124,-2,8,51055
1370974525,5805,33.8300018310546900,24.1005001068115230,36.3260002136230500,249.4860992431640600,-43.3321800231933600,24.0649394989013670,27.5463905334472660,68,132,102,86,60,9882,2147015085,2147611574,2147338898,2147429229,2149707172,2149791277,2149772269,2147409142,1688,-2,9,6549
1370974734,5803,31.9500007629394530,24.2924003601074220,36.3064002990722660,248.1557006835937500,-50.1097106933593750,24.2756309509277340,27.5202102661132800,67,130,101,88,60,9884,2147024932,2147620726,2147349421,2147429266,2149938980,2150032338,2149958427,2147444891,1251,-2,9,36325
1370974810,5803,30.8899993896484380,24.7012004852294920,36.2603988647460940,246.2787017822265600,-60.5558090209960940,24.6009902954101560,27.4729804992675780,68,132,103,90,59,9889,2147008301,2147594368,2147330550,2147426139,2149303012,2149340397,2149416960,2147371858,863,-2,8,20177
1370975029,5803,28.7800006866455080,24.9988002777099600,36.2382011413574200,243.7124938964843800,-72.9282302856445300,24.9873695373535160,27.4327907562255860,66,132,100,85,59,9886,2147026651,2147621970,2147355218,2147426112,2150033600,2150121334,2150029101,2147472941,3487,-2,8,52498
1370975372,5801,26.7199993133544920,25.5373001098632800,36.1878013610839840,241.1443023681640600,-90.7477493286132800,25.5459098815917970,27.3272590637207030,71,128,101,88,60,9893,2147030646,2147633947,2147362432,2147427977,2150371254,2150476452,2150313243,2147541933,2302,-2,9,54764
